SOHO CELIAS Proton Monitor
Solar Wind Parameters for Carrington Rotation 2200 (hour averages)


Listed Parameters:

Measurement time (Year, Month, Day of Month, Day of Year, Hour, Minute, Second)
Proton speed [km/sec]
Proton density [protons per cubic centimeter]
Most probable proton thermal speed [km/sec]
Arrival direction [degrees from north-south, with + meaning FROM the south).
(SPEED=-1 means NOT AVAILABLE)

SOHO spacecraft coordinates: based on SOHO PRE orbit files
GSE X, Y, Z [Earth Radii] 1 RE == 6378 km
Heliocentric Range [106 km],
Heliographic Latitude and Longitude [deg].

FORMAT=(1X,I2,1X,I3,1X,I2,1X,I2,1X,I2,F7.1,3F7.2,3X,3F7.1,F7.1,F7.2,F8.2)



                              CELIAS/MTOF/PM DATA                      SOHO ORBIT DATA              
 InSitu_Start__Time       [km/s]  [cm-3] [km/s]  [deg]      [Re]   [Re]   [Re]  [Mkm]  [deg]  [deg]
 YY MON DY DOY:HH:MM:SS   SPEED     Np     Vth    N/S      GSE_X  GSE_Y  GSE_Z  RANGE  HGLAT  HGLONG
 18 JAN 27  27:07:00:00     398    3.5      33    0.1      195.0  -56.2   11.8  146.1   -5.6   359.8
 18 JAN 27  27:08:00:00     403    3.4      34    0.1      195.0  -56.1   11.8  146.1   -5.6   359.3
 18 JAN 27  27:09:00:00     406    3.3      35    0.6      195.0  -55.9   11.9  146.1   -5.6   358.7
 18 JAN 27  27:10:00:00     408    3.4      36    0.4      195.0  -55.8   11.9  146.1   -5.7   358.2
 18 JAN 27  27:11:00:00     416    3.0      37    1.1      194.9  -55.7   11.9  146.1   -5.7   357.6
 18 JAN 27  27:12:00:00     413    3.1      37    0.9      194.9  -55.5   11.9  146.1   -5.7   357.1
 18 JAN 27  27:13:00:00     413    3.1      36    1.3      194.9  -55.4   11.9  146.1   -5.7   356.6
 18 JAN 27  27:14:00:00     406    3.2      35    1.0      194.9  -55.3   11.9  146.1   -5.7   356.0
 18 JAN 27  27:15:00:00     379    4.0      26    0.4      194.9  -55.1   12.0  146.1   -5.7   355.5
 18 JAN 27  27:16:00:00     369    4.2      24    0.3      194.9  -55.0   12.0  146.1   -5.7   354.9
 18 JAN 27  27:17:00:00     362    4.5      22    0.2      194.8  -54.9   12.0  146.1   -5.7   354.4
 18 JAN 27  27:18:00:00     356    5.0      21   -0.4      194.8  -54.7   12.0  146.1   -5.7   353.8
 18 JAN 27  27:19:00:00     356    5.1      21   -0.1      194.8  -54.6   12.0  146.1   -5.7   353.2
 18 JAN 27  27:20:00:00     352    3.3      23    0.2      194.8  -54.5   12.0  146.1   -5.7   352.7
 18 JAN 27  27:21:00:00     354    4.1      21   -0.5      194.8  -54.3   12.1  146.1   -5.7   352.1
 18 JAN 27  27:22:00:00     353    4.3      21   -1.3      194.8  -54.2   12.1  146.1   -5.7   351.6
 18 JAN 27  27:23:00:00     354    5.1      21   -2.1      194.7  -54.1   12.1  146.1   -5.7   351.1
 18 JAN 28  28:00:00:00     356    5.6      21   -2.5      194.7  -53.9   12.1  146.1   -5.7   350.5
 18 JAN 28  28:01:00:00     355    5.7      21   -2.2      194.7  -53.8   12.1  146.1   -5.7   350.0
 18 JAN 28  28:02:00:00     353    5.3      21   -2.2      194.7  -53.7   12.1  146.1   -5.7   349.4
 18 JAN 28  28:03:00:00     354    5.6      21   -3.6      194.7  -53.5   12.2  146.1   -5.7   348.9
 18 JAN 28  28:04:00:00     355    5.5      23   -5.0      194.7  -53.4   12.2  146.1   -5.7   348.3
 18 JAN 28  28:05:00:00     354    6.0      24   -5.7      194.6  -53.3   12.2  146.1   -5.7   347.8
 18 JAN 28  28:06:00:00     346    6.2      25   -5.6      194.6  -53.1   12.2  146.1   -5.7   347.2
 18 JAN 28  28:07:00:00     345    5.2      26   -4.5      194.6  -53.0   12.2  146.1   -5.7   346.6
 18 JAN 28  28:08:00:00     341    5.0      26   -4.1      194.6  -52.9   12.2  146.1   -5.7   346.1
 18 JAN 28  28:09:00:00     342    4.8      27   -3.5      194.6  -52.7   12.3  146.1   -5.7   345.6
 18 JAN 28  28:10:00:00     347    4.5      27   -3.8      194.6  -52.6   12.3  146.1   -5.7   345.0
 18 JAN 28  28:11:00:00     345    4.9      27   -2.6      194.6  -52.5   12.3  146.1   -5.7   344.5
 18 JAN 28  28:12:00:00     351    4.2      27   -1.8      194.5  -52.3   12.3  146.1   -5.7   343.9
 18 JAN 28  28:13:00:00     353    3.8      27   -1.9      194.5  -52.2   12.3  146.1   -5.7   343.4
 18 JAN 28  28:14:00:00     351    3.1      28   -1.5      194.5  -52.1   12.3  146.1   -5.7   342.8
 18 JAN 28  28:15:00:00     349    3.6      27   -2.3      194.5  -51.9   12.3  146.1   -5.7   342.3
 18 JAN 28  28:16:00:00     345    3.5      27   -2.6      194.5  -51.8   12.4  146.1   -5.7   341.7
 18 JAN 28  28:17:00:00     337    4.0      26   -2.8      194.5  -51.7   12.4  146.1   -5.7   341.2
 18 JAN 28  28:18:00:00     331    5.0      24   -4.2      194.5  -51.5   12.4  146.1   -5.7   340.6
 18 JAN 28  28:19:00:00     342    4.8      25   -5.4      194.4  -51.4   12.4  146.1   -5.7   340.1
 18 JAN 28  28:20:00:00     342    3.2      26   -4.0      194.4  -51.3   12.4  146.1   -5.7   339.5
 18 JAN 28  28:21:00:00     336    4.1      24   -4.8      194.4  -51.1   12.4  146.1   -5.7   339.0
 18 JAN 28  28:22:00:00     333    4.7      24   -4.9      194.4  -51.0   12.5  146.1   -5.8   338.4
 18 JAN 28  28:23:00:00     330    4.0      23   -4.9      194.4  -50.9   12.5  146.1   -5.8   337.9
 18 JAN 29  29:00:00:00     322    4.6      22   -3.1      194.4  -50.7   12.5  146.1   -5.8   337.4
 18 JAN 29  29:01:00:00     312    6.9      20   -4.0      194.4  -50.6   12.5  146.1   -5.8   336.8
 18 JAN 29  29:02:00:00     315    7.3      20   -4.3      194.3  -50.5   12.5  146.1   -5.8   336.2
 18 JAN 29  29:03:00:00     309    6.7      20   -3.3      194.3  -50.3   12.5  146.1   -5.8   335.7
 18 JAN 29  29:04:00:00     310    7.7      20   -3.6      194.3  -50.2   12.6  146.1   -5.8   335.1
 18 JAN 29  29:05:00:00     315    7.3      21   -3.0      194.3  -50.0   12.6  146.1   -5.8   334.6
 18 JAN 29  29:06:00:00     322    5.8      22   -1.7      194.3  -49.9   12.6  146.1   -5.8   334.0
 18 JAN 29  29:07:00:00     328    6.3      24   -0.4      194.3  -49.8   12.6  146.1   -5.8   333.5
 18 JAN 29  29:08:00:00     334    5.3      24    0.9      194.3  -49.6   12.6  146.1   -5.8   332.9
 18 JAN 29  29:09:00:00     333    4.8      24   -0.3      194.2  -49.5   12.6  146.1   -5.8   332.4
 18 JAN 29  29:10:00:00     323    5.5      23   -0.4      194.2  -49.4   12.6  146.1   -5.8   331.9
 18 JAN 29  29:11:00:00     321    6.7      22   -1.4      194.2  -49.2   12.7  146.1   -5.8   331.3
 18 JAN 29  29:12:00:00     331    4.6      24   -2.2      194.2  -49.1   12.7  146.1   -5.8   330.8
 18 JAN 29  29:13:00:00     328    7.4      23   -4.8      194.2  -49.0   12.7  146.1   -5.8   330.2
 18 JAN 29  29:14:00:00     322    7.4      23   -2.6      194.2  -48.8   12.7  146.1   -5.8   329.6
 18 JAN 29  29:15:00:00     308    5.3      20   -1.7      194.2  -48.7   12.7  146.1   -5.8   329.1
 18 JAN 29  29:16:00:00     298    4.1      19   -0.9      194.2  -48.5   12.7  146.1   -5.8   328.5
 18 JAN 29  29:17:00:00     310    5.0      20   -0.7      194.2  -48.4   12.8  146.1   -5.8   328.0
 18 JAN 29  29:18:00:00     306    4.9      19   -0.5      194.1  -48.3   12.8  146.1   -5.8   327.4
 18 JAN 29  29:19:00:00     306    5.4      19   -0.9      194.1  -48.1   12.8  146.1   -5.8   326.9
 18 JAN 29  29:20:00:00     306    6.9      19   -3.5      194.1  -48.0   12.8  146.1   -5.8   326.4
 18 JAN 29  29:21:00:00     313    7.0      21   -3.6      194.1  -47.9   12.8  146.1   -5.8   325.8
 18 JAN 29  29:22:00:00     305    7.3      19   -4.1      194.1  -47.7   12.8  146.1   -5.8   325.3
 18 JAN 29  29:23:00:00     309    5.4      20   -2.7      194.1  -47.6   12.8  146.1   -5.8   324.7
 18 JAN 30  30:00:00:00     318    8.2      21   -3.1      194.1  -47.4   12.9  146.1   -5.8   324.2
 18 JAN 30  30:01:00:00     320    7.4      21   -4.0      194.1  -47.3   12.9  146.1   -5.8   323.6
 18 JAN 30  30:02:00:00     319    6.3      21   -2.3      194.0  -47.2   12.9  146.1   -5.8   323.0
 18 JAN 30  30:03:00:00     316    8.5      20   -5.0      194.0  -47.0   12.9  146.1   -5.8   322.5
 18 JAN 30  30:04:00:00     312    6.0      20   -2.8      194.0  -46.9   12.9  146.1   -5.8   321.9
 18 JAN 30  30:05:00:00     314    7.8      21   -3.8      194.0  -46.7   12.9  146.1   -5.8   321.4
 18 JAN 30  30:06:00:00     310    5.4      20   -0.8      194.0  -46.6   12.9  146.1   -5.8   320.9
 18 JAN 30  30:07:00:00     308    4.4      20   -0.6      194.0  -46.5   13.0  146.1   -5.8   320.3
 18 JAN 30  30:08:00:00     297    5.3      19   -1.5      194.0  -46.3   13.0  146.1   -5.8   319.8
 18 JAN 30  30:09:00:00     299    5.4      19   -1.2      194.0  -46.2   13.0  146.1   -5.8   319.2
 18 JAN 30  30:10:00:00     307    5.7      20   -1.2      194.0  -46.1   13.0  146.1   -5.8   318.7
 18 JAN 30  30:11:00:00     304    5.6      19   -1.3      194.0  -45.9   13.0  146.1   -5.9   318.1
 18 JAN 30  30:12:00:00     302    3.9      19   -0.2      193.9  -45.8   13.0  146.1   -5.9   317.6
 18 JAN 30  30:13:00:00     308    3.3      20    0.5      193.9  -45.6   13.0  146.1   -5.9   317.0
 18 JAN 30  30:14:00:00     303    3.0      19    0.4      193.9  -45.5   13.1  146.1   -5.9   316.4
 18 JAN 30  30:15:00:00     300    3.2      19    0.9      193.9  -45.4   13.1  146.1   -5.9   315.9
 18 JAN 30  30:16:00:00     300    3.3      19    0.3      193.9  -45.2   13.1  146.1   -5.9   315.4
 18 JAN 30  30:17:00:00     292    3.8      19    0.0      193.9  -45.1   13.1  146.1   -5.9   314.8
 18 JAN 30  30:18:00:00     290    4.1      19   -0.7      193.9  -44.9   13.1  146.1   -5.9   314.3
 18 JAN 30  30:19:00:00     292    4.0      19   -0.3      193.9  -44.8   13.1  146.1   -5.9   313.8
 18 JAN 30  30:20:00:00     289    4.5      19    0.9      193.9  -44.7   13.1  146.1   -5.9   313.2
 18 JAN 30  30:21:00:00     291    4.8      19    0.3      193.9  -44.5   13.2  146.1   -5.9   312.6
 18 JAN 30  30:22:00:00     291    5.2      19    0.3      193.9  -44.4   13.2  146.1   -5.9   312.1
 18 JAN 30  30:23:00:00     294    5.0      18    0.2      193.8  -44.2   13.2  146.1   -5.9   311.5
 18 JAN 31  31:00:00:00     290    4.8      19   -0.1      193.8  -44.1   13.2  146.1   -5.9   311.0
 18 JAN 31  31:01:00:00     292    4.3      19    1.3      193.8  -43.9   13.2  146.1   -5.9   310.4
 18 JAN 31  31:02:00:00     293    4.7      19    0.1      193.8  -43.8   13.2  146.1   -5.9   309.9
 18 JAN 31  31:03:00:00     292    4.2      19   -0.2      193.8  -43.7   13.2  146.1   -5.9   309.3
 18 JAN 31  31:04:00:00     295    4.2      19    0.3      193.8  -43.5   13.3  146.1   -5.9   308.8
 18 JAN 31  31:05:00:00     305    4.6      19    0.0      193.8  -43.4   13.3  146.1   -5.9   308.3
 18 JAN 31  31:06:00:00     313    5.3      20   -2.0      193.8  -43.2   13.3  146.1   -6.0   307.7
 18 JAN 31  31:07:00:00     311    7.5      20   -3.9      193.8  -43.1   13.3  146.1   -6.0   307.2
 18 JAN 31  31:08:00:00     323   10.5      19   -7.2      193.8  -43.0   13.3  146.1   -6.0   306.6
 18 JAN 31  31:09:00:00     333    5.9      21   -5.6      193.8  -42.8   13.3  146.2   -6.0   306.0
 18 JAN 31  31:10:00:00     332    5.3      23   -4.3      193.8  -42.7   13.3  146.2   -6.0   305.5
 18 JAN 31  31:11:00:00     338    3.5      24   -1.0      193.7  -42.5   13.3  146.2   -6.0   304.9
 18 JAN 31  31:12:00:00     344    4.9      25    0.4      193.7  -42.4   13.4  146.2   -6.0   304.4
 18 JAN 31  31:13:00:00     352    6.0      29    2.7      193.7  -42.2   13.4  146.2   -6.0   303.8
 18 JAN 31  31:14:00:00     343    6.0      26    4.2      193.7  -42.1   13.4  146.2   -6.0   303.3
 18 JAN 31  31:15:00:00     342    5.2      26    3.4      193.7  -42.0   13.4  146.2   -6.0   302.8
 18 JAN 31  31:16:00:00     345    6.6      26    0.3      193.7  -41.8   13.4  146.2   -6.0   302.2
 18 JAN 31  31:17:00:00     343    5.2      24   -0.9      193.7  -41.7   13.4  146.2   -6.0   301.7
 18 JAN 31  31:18:00:00     349    5.9      23   -0.4      193.7  -41.5   13.4  146.2   -6.0   301.1
 18 JAN 31  31:19:00:00     378    6.5      30    2.4      193.7  -41.4   13.5  146.2   -6.0   300.6
 18 JAN 31  31:20:00:00     382    4.9      32    0.8      193.7  -41.2   13.5  146.2   -6.0   300.0
 18 JAN 31  31:21:00:00     393    4.9      34    0.9      193.7  -41.1   13.5  146.2   -6.0   299.4
 18 JAN 31  31:22:00:00     402    4.9      37    1.3      193.7  -41.0   13.5  146.2   -6.0   298.9
 18 JAN 31  31:23:00:00     399    4.7      36    1.0      193.7  -40.8   13.5  146.2   -6.0   298.3
 18 FEB  1  32:00:00:00     397    4.6      32    1.2      193.7  -40.7   13.5  146.2   -6.0   297.8
 18 FEB  1  32:01:00:00     393    4.5      30    1.3      193.7  -40.5   13.5  146.2   -6.0   297.3
 18 FEB  1  32:02:00:00     384    4.6      27    1.5      193.7  -40.4   13.5  146.2   -6.0   296.7
 18 FEB  1  32:03:00:00     384    4.7      27    1.6      193.6  -40.2   13.6  146.2   -6.0   296.2
 18 FEB  1  32:04:00:00     378    4.5      26    1.0      193.6  -40.1   13.6  146.2   -6.0   295.6
 18 FEB  1  32:05:00:00     383    3.8      28    0.9      193.6  -40.0   13.6  146.2   -6.0   295.1
 18 FEB  1  32:06:00:00     373    4.5      25    1.4      193.6  -39.8   13.6  146.2   -6.0   294.5
 18 FEB  1  32:07:00:00     367    4.6      24    1.0      193.6  -39.7   13.6  146.2   -6.0   294.0
 18 FEB  1  32:08:00:00     370    4.2      24   -0.3      193.6  -39.5   13.6  146.2   -6.0   293.4
 18 FEB  1  32:09:00:00     361    4.4      22    0.7      193.6  -39.4   13.6  146.2   -6.0   292.8
 18 FEB  1  32:10:00:00     360    4.2      22    0.6      193.6  -39.2   13.6  146.2   -6.0   292.3
 18 FEB  1  32:11:00:00     366    4.3      25    0.2      193.6  -39.1   13.7  146.2   -6.0   291.8
 18 FEB  1  32:12:00:00     382    4.1      31    0.3      193.6  -38.9   13.7  146.2   -6.0   291.2
 18 FEB  1  32:13:00:00     382    4.5      30    0.9      193.6  -38.8   13.7  146.2   -6.0   290.7
 18 FEB  1  32:14:00:00     385    4.9      29    1.7      193.6  -38.7   13.7  146.2   -6.0   290.1
 18 FEB  1  32:15:00:00     378    5.2      27    1.9      193.6  -38.5   13.7  146.2   -6.0   289.6
 18 FEB  1  32:16:00:00     371    5.1      26    2.0      193.6  -38.4   13.7  146.2   -6.0   289.0
 18 FEB  1  32:17:00:00     366    4.8      25    1.3      193.6  -38.2   13.7  146.2   -6.0   288.5
 18 FEB  1  32:18:00:00     369    5.3      25    2.6      193.6  -38.1   13.7  146.2   -6.0   287.9
 18 FEB  1  32:19:00:00     362    5.0      23    1.6      193.6  -37.9   13.8  146.2   -6.0   287.4
 18 FEB  1  32:20:00:00     357    4.5      21    1.4      193.6  -37.8   13.8  146.2   -6.0   286.8
 18 FEB  1  32:21:00:00     354    3.7      22    1.1      193.6  -37.6   13.8  146.2   -6.1   286.2
 18 FEB  1  32:22:00:00     353    3.7      21    1.3      193.6  -37.5   13.8  146.2   -6.1   285.7
 18 FEB  1  32:23:00:00     350    3.5      20    1.0      193.6  -37.3   13.8  146.2   -6.1   285.2
 18 FEB  2  33:00:00:00     349    2.8      21    1.2      193.6  -37.2   13.8  146.2   -6.1   284.6
 18 FEB  2  33:01:00:00     350    2.7      21    2.0      193.5  -37.0   13.8  146.2   -6.1   284.1
 18 FEB  2  33:02:00:00     348    3.4      20    0.2      193.5  -36.9   13.8  146.2   -6.1   283.6
 18 FEB  2  33:03:00:00     348    3.4      20    1.4      193.5  -36.7   13.9  146.2   -6.1   283.0
 18 FEB  2  33:04:00:00     347    2.7      20    1.2      193.5  -36.6   13.9  146.2   -6.1   282.4
 18 FEB  2  33:05:00:00     346    2.7      20    0.5      193.5  -36.5   13.9  146.2   -6.1   281.9
 18 FEB  2  33:06:00:00     348    2.5      24    1.1      193.5  -36.3   13.9  146.2   -6.1   281.3
 18 FEB  2  33:07:00:00     346    2.1      25    0.5      193.5  -36.2   13.9  146.2   -6.1   280.8
 18 FEB  2  33:08:00:00     351    2.7      25    0.6      193.5  -36.0   13.9  146.2   -6.1   280.2
 18 FEB  2  33:09:00:00     354    2.8      25   -0.6      193.5  -35.9   13.9  146.2   -6.1   279.7
 18 FEB  2  33:10:00:00     353    3.0      24   -1.1      193.5  -35.7   13.9  146.2   -6.1   279.1
 18 FEB  2  33:11:00:00     347    2.2      25   -1.1      193.5  -35.6   13.9  146.2   -6.1   278.6
 18 FEB  2  33:12:00:00     342    1.9      26   -1.8      193.5  -35.4   14.0  146.2   -6.1   278.1
 18 FEB  2  33:13:00:00     338    2.1      25   -1.9      193.5  -35.3   14.0  146.2   -6.1   277.5
 18 FEB  2  33:14:00:00     336    2.2      24   -3.8      193.5  -35.1   14.0  146.2   -6.1   277.0
 18 FEB  2  33:15:00:00     332    2.2      23   -3.3      193.5  -35.0   14.0  146.2   -6.1   276.4
 18 FEB  2  33:16:00:00     328    2.6      24   -2.0      193.5  -34.8   14.0  146.2   -6.1   275.8
 18 FEB  2  33:17:00:00     317    4.0      21   -2.9      193.5  -34.7   14.0  146.2   -6.1   275.3
 18 FEB  2  33:18:00:00     303    4.8      19   -3.0      193.5  -34.5   14.0  146.2   -6.1   274.7
 18 FEB  2  33:19:00:00     304    5.6      19   -3.3      193.5  -34.4   14.0  146.2   -6.1   274.2
 18 FEB  2  33:20:00:00     297    5.1      19   -2.8      193.5  -34.2   14.0  146.2   -6.1   273.6
 18 FEB  2  33:21:00:00     296    4.9      19   -2.6      193.5  -34.1   14.1  146.2   -6.1   273.1
 18 FEB  2  33:22:00:00     295    4.5      19   -2.5      193.5  -33.9   14.1  146.2   -6.1   272.6
 18 FEB  2  33:23:00:00     289    4.1      18   -1.9      193.5  -33.8   14.1  146.2   -6.1   272.0
 18 FEB  3  34:00:00:00     289    3.9      18   -2.0      193.5  -33.6   14.1  146.2   -6.1   271.5
 18 FEB  3  34:01:00:00     290    3.5      19   -1.4      193.5  -33.5   14.1  146.2   -6.1   270.9
 18 FEB  3  34:02:00:00     295    3.8      18   -1.0      193.5  -33.3   14.1  146.2   -6.1   270.4
 18 FEB  3  34:03:00:00     299    3.5      19   -1.4      193.5  -33.2   14.1  146.2   -6.1   269.8
 18 FEB  3  34:04:00:00     306    3.3      20   -2.0      193.5  -33.0   14.1  146.2   -6.1   269.2
 18 FEB  3  34:05:00:00     300    3.9      19   -1.1      193.5  -32.9   14.1  146.2   -6.1   268.7
 18 FEB  3  34:06:00:00     300    4.1      19   -1.3      193.5  -32.7   14.1  146.2   -6.1   268.1
 18 FEB  3  34:07:00:00     301    4.2      19   -1.6      193.5  -32.6   14.2  146.2   -6.1   267.6
 18 FEB  3  34:08:00:00     304    3.3      19   -0.5      193.5  -32.4   14.2  146.2   -6.1   267.1
 18 FEB  3  34:09:00:00     295    2.9      19   -0.9      193.5  -32.3   14.2  146.2   -6.1   266.5
 18 FEB  3  34:10:00:00     288    4.0      18   -1.7      193.5  -32.1   14.2  146.2   -6.1   266.0
 18 FEB  3  34:11:00:00     289    3.1      18   -1.1      193.5  -32.0   14.2  146.2   -6.1   265.4
 18 FEB  3  34:12:00:00     285    3.7      17   -1.4      193.5  -31.8   14.2  146.2   -6.1   264.9
 18 FEB  3  34:13:00:00     287    4.0      17   -2.1      193.5  -31.7   14.2  146.2   -6.1   264.3
 18 FEB  3  34:14:00:00     286    3.9      17   -1.4      193.5  -31.5   14.2  146.2   -6.2   263.8
 18 FEB  3  34:15:00:00     287    4.4      17   -1.6      193.5  -31.4   14.2  146.2   -6.2   263.2
 18 FEB  3  34:16:00:00     292    5.0      19   -2.9      193.5  -31.2   14.2  146.2   -6.2   262.6
 18 FEB  3  34:17:00:00     299    8.5      19   -4.5      193.5  -31.1   14.3  146.2   -6.2   262.1
 18 FEB  3  34:18:00:00     301    8.4      19   -4.7      193.5  -30.9   14.3  146.2   -6.2   261.6
 18 FEB  3  34:19:00:00     301    6.1      19   -3.5      193.5  -30.8   14.3  146.2   -6.2   261.0
 18 FEB  3  34:20:00:00     300    6.2      19   -3.7      193.5  -30.6   14.3  146.2   -6.2   260.5
 18 FEB  3  34:21:00:00     294    5.3      19   -2.7      193.5  -30.5   14.3  146.2   -6.2   260.0
 18 FEB  3  34:22:00:00     293    4.5      19   -1.7      193.5  -30.3   14.3  146.2   -6.2   259.4
 18 FEB  3  34:23:00:00     294    3.9      19   -1.7      193.5  -30.2   14.3  146.2   -6.2   258.8
 18 FEB  4  35:00:00:00     296    3.6      19   -2.2      193.5  -30.0   14.3  146.2   -6.2   258.3
 18 FEB  4  35:01:00:00     289    3.6      18   -1.2      193.5  -29.8   14.3  146.2   -6.2   257.7
 18 FEB  4  35:02:00:00     287    3.4      18   -0.6      193.5  -29.7   14.3  146.2   -6.2   257.2
 18 FEB  4  35:03:00:00     287    3.6      18   -0.3      193.5  -29.5   14.4  146.2   -6.2   256.6
 18 FEB  4  35:04:00:00     294    4.7      19   -1.5      193.5  -29.4   14.4  146.2   -6.2   256.1
 18 FEB  4  35:05:00:00     297    5.2      19   -2.5      193.5  -29.2   14.4  146.2   -6.2   255.5
 18 FEB  4  35:06:00:00     299    4.6      19   -1.8      193.5  -29.1   14.4  146.2   -6.2   255.0
 18 FEB  4  35:07:00:00     291    4.5      19   -1.8      193.5  -28.9   14.4  146.2   -6.2   254.5
 18 FEB  4  35:08:00:00     294    4.6      19   -2.9      193.5  -28.8   14.4  146.2   -6.2   253.9
 18 FEB  4  35:09:00:00     299    4.2      19   -1.6      193.5  -28.6   14.4  146.2   -6.2   253.4
 18 FEB  4  35:10:00:00     322    2.8      22   -1.9      193.5  -28.5   14.4  146.2   -6.2   252.8
 18 FEB  4  35:11:00:00     329    3.0      22   -2.2      193.5  -28.3   14.4  146.2   -6.2   252.2
 18 FEB  4  35:12:00:00     340    4.6      21   -2.3      193.5  -28.2   14.4  146.2   -6.2   251.7
 18 FEB  4  35:13:00:00     339    6.7      20   -3.8      193.5  -28.0   14.4  146.2   -6.2   251.1
 18 FEB  4  35:14:00:00     331    7.4      21   -4.4      193.5  -27.8   14.5  146.2   -6.2   250.6
 18 FEB  4  35:15:00:00     331    9.1      21   -4.7      193.5  -27.7   14.5  146.2   -6.2   250.0
 18 FEB  4  35:16:00:00     334    6.6      22   -4.3      193.5  -27.5   14.5  146.2   -6.2   249.5
 18 FEB  4  35:17:00:00     342    5.0      23   -1.4      193.5  -27.4   14.5  146.2   -6.2   249.0
 18 FEB  4  35:18:00:00     354    4.9      25   -1.1      193.5  -27.2   14.5  146.2   -6.2   248.4
 18 FEB  4  35:19:00:00     354    5.0      25   -1.3      193.5  -27.1   14.5  146.2   -6.2   247.9
 18 FEB  4  35:20:00:00     358    5.5      29   -0.6      193.5  -26.9   14.5  146.3   -6.2   247.3
 18 FEB  4  35:21:00:00     363    6.4      31   -0.3      193.5  -26.8   14.5  146.3   -6.2   246.8
 18 FEB  4  35:22:00:00     366    6.5      32   -0.4      193.5  -26.6   14.5  146.3   -6.2   246.2
 18 FEB  4  35:23:00:00     382    5.9      32    0.2      193.5  -26.4   14.5  146.3   -6.2   245.6
 18 FEB  5  36:00:00:00     375    6.9      30   -2.4      193.5  -26.3   14.5  146.3   -6.2   245.1
 18 FEB  5  36:01:00:00     376    6.3      31   -2.3      193.5  -26.1   14.5  146.3   -6.2   244.5
 18 FEB  5  36:02:00:00     371    7.4      27   -3.5      193.5  -26.0   14.6  146.3   -6.2   244.0
 18 FEB  5  36:03:00:00     362    6.5      26   -3.3      193.5  -25.8   14.6  146.3   -6.2   243.4
 18 FEB  5  36:04:00:00     367    4.1      29   -1.8      193.5  -25.7   14.6  146.3   -6.2   242.9
 18 FEB  5  36:05:00:00     381    4.3      30   -0.6      193.5  -25.5   14.6  146.3   -6.2   242.4
 18 FEB  5  36:06:00:00      -1   -1.0      -1   99.0      193.6  -25.4   14.6  146.3   -6.2   241.8
 18 FEB  5  36:07:00:00      -1   -1.0      -1   99.0      193.6  -25.2   14.6  146.3   -6.2   241.3
 18 FEB  5  36:08:00:00      -1   -1.0      -1   99.0      193.6  -25.0   14.6  146.3   -6.2   240.7
 18 FEB  5  36:09:00:00      -1   -1.0      -1   99.0      193.6  -24.9   14.6  146.3   -6.3   240.2
 18 FEB  5  36:10:00:00      -1   -1.0      -1   99.0      193.6  -24.7   14.6  146.3   -6.3   239.6
 18 FEB  5  36:11:00:00      -1   -1.0      -1   99.0      193.6  -24.6   14.6  146.3   -6.3   239.0
 18 FEB  5  36:12:00:00      -1   -1.0      -1   99.0      193.6  -24.4   14.6  146.3   -6.3   238.5
 18 FEB  5  36:13:00:00      -1   -1.0      -1   99.0      193.6  -24.2   14.6  146.3   -6.3   237.9
 18 FEB  5  36:14:00:00      -1   -1.0      -1   99.0      193.6  -24.1   14.7  146.3   -6.3   237.4
 18 FEB  5  36:15:00:00     357    4.3      24   -2.0      193.6  -23.9   14.7  146.3   -6.3   236.9
 18 FEB  5  36:16:00:00     356    4.4      22   -1.6      193.6  -23.8   14.7  146.3   -6.3   236.3
 18 FEB  5  36:17:00:00     363    4.9      22   -0.3      193.6  -23.6   14.7  146.3   -6.3   235.8
 18 FEB  5  36:18:00:00     356    4.9      21   -0.3      193.6  -23.5   14.7  146.3   -6.3   235.2
 18 FEB  5  36:19:00:00     359    4.1      22    0.1      193.6  -23.3   14.7  146.3   -6.3   234.7
 18 FEB  5  36:20:00:00     355    3.7      21    0.3      193.6  -23.1   14.7  146.3   -6.3   234.1
 18 FEB  5  36:21:00:00     358    3.1      22    0.5      193.6  -23.0   14.7  146.3   -6.3   233.6
 18 FEB  5  36:22:00:00     358    3.3      22    0.5      193.6  -22.8   14.7  146.3   -6.3   233.0
 18 FEB  5  36:23:00:00     361    3.3      23   -0.5      193.6  -22.7   14.7  146.3   -6.3   232.4
 18 FEB  6  37:00:00:00     372    3.4      25    0.1      193.6  -22.5   14.7  146.3   -6.3   231.9
 18 FEB  6  37:01:00:00     395    3.4      31    0.6      193.6  -22.3   14.7  146.3   -6.3   231.4
 18 FEB  6  37:02:00:00     383    4.2      27   -0.6      193.6  -22.2   14.7  146.3   -6.3   230.8
 18 FEB  6  37:03:00:00     378    4.9      26   -1.2      193.6  -22.0   14.7  146.3   -6.3   230.3
 18 FEB  6  37:04:00:00     368    4.9      23   -1.8      193.6  -21.9   14.8  146.3   -6.3   229.8
 18 FEB  6  37:05:00:00     371    4.4      24   -0.7      193.6  -21.7   14.8  146.3   -6.3   229.2
 18 FEB  6  37:06:00:00     386    3.8      28   -0.6      193.6  -21.6   14.8  146.3   -6.3   228.6
 18 FEB  6  37:07:00:00     377    4.1      26   -0.4      193.6  -21.4   14.8  146.3   -6.4   228.1
 18 FEB  6  37:08:00:00     371    4.8      24   -0.9      193.6  -21.2   14.8  146.3   -6.4   227.5
 18 FEB  6  37:09:00:00     376    4.3      26   -0.5      193.6  -21.1   14.8  146.3   -6.4   227.0
 18 FEB  6  37:10:00:00     389    3.3      29    0.2      193.7  -20.9   14.8  146.3   -6.4   226.4
 18 FEB  6  37:11:00:00     380    3.7      27   -0.5      193.7  -20.8   14.8  146.3   -6.4   225.9
 18 FEB  6  37:12:00:00     379    3.5      26    0.0      193.7  -20.6   14.8  146.3   -6.4   225.3
 18 FEB  6  37:13:00:00     379    3.5      27    0.1      193.7  -20.4   14.8  146.3   -6.4   224.8
 18 FEB  6  37:14:00:00     377    4.0      25   -0.7      193.7  -20.3   14.8  146.3   -6.4   224.3
 18 FEB  6  37:15:00:00     372    3.6      25   -0.5      193.7  -20.1   14.8  146.3   -6.4   223.7
 18 FEB  6  37:16:00:00     416    3.0      36   -0.7      193.7  -19.9   14.8  146.3   -6.4   223.2
 18 FEB  6  37:17:00:00     423    2.6      38    0.1      193.7  -19.8   14.8  146.3   -6.4   222.6
 18 FEB  6  37:18:00:00     417    2.4      36    0.1      193.7  -19.6   14.8  146.3   -6.4   222.0
 18 FEB  6  37:19:00:00     416    2.6      36    0.1      193.7  -19.5   14.8  146.3   -6.4   221.5
 18 FEB  6  37:20:00:00     401    3.0      33    0.3      193.7  -19.3   14.9  146.3   -6.4   220.9
 18 FEB  6  37:21:00:00     392    3.2      31    0.0      193.7  -19.1   14.9  146.3   -6.4   220.4
 18 FEB  6  37:22:00:00     378    3.1      27    0.3      193.7  -19.0   14.9  146.3   -6.4   219.8
 18 FEB  6  37:23:00:00     367    3.2      24    0.3      193.7  -18.8   14.9  146.3   -6.4   219.3
 18 FEB  7  38:00:00:00     362    3.3      23    0.7      193.7  -18.7   14.9  146.3   -6.4   218.8
 18 FEB  7  38:01:00:00     381    3.3      28    0.6      193.7  -18.5   14.9  146.3   -6.4   218.2
 18 FEB  7  38:02:00:00     382    3.3      29    0.6      193.7  -18.3   14.9  146.3   -6.4   217.7
 18 FEB  7  38:03:00:00     382    3.2      29    0.9      193.7  -18.2   14.9  146.3   -6.4   217.1
 18 FEB  7  38:04:00:00     377    3.3      27    0.7      193.7  -18.0   14.9  146.3   -6.4   216.6
 18 FEB  7  38:05:00:00     380    3.3      28    1.3      193.7  -17.9   14.9  146.3   -6.4   216.0
 18 FEB  7  38:06:00:00     383    4.0      28    1.8      193.7  -17.7   14.9  146.3   -6.4   215.4
 18 FEB  7  38:07:00:00     375    4.1      26    1.0      193.8  -17.5   14.9  146.3   -6.4   214.9
 18 FEB  7  38:08:00:00     383    4.0      28    0.9      193.8  -17.4   14.9  146.3   -6.4   214.3
 18 FEB  7  38:09:00:00     387    4.0      28    1.6      193.8  -17.2   14.9  146.3   -6.4   213.8
 18 FEB  7  38:10:00:00     371    4.2      24    0.7      193.8  -17.0   14.9  146.3   -6.4   213.3
 18 FEB  7  38:11:00:00     380    3.9      28    0.8      193.8  -16.9   14.9  146.3   -6.4   212.7
 18 FEB  7  38:12:00:00     378    4.3      27    0.5      193.8  -16.7   14.9  146.3   -6.4   212.2
 18 FEB  7  38:13:00:00     374    4.1      25    1.0      193.8  -16.5   14.9  146.3   -6.4   211.6
 18 FEB  7  38:14:00:00     376    3.7      25    1.3      193.8  -16.4   15.0  146.3   -6.4   211.1
 18 FEB  7  38:15:00:00     369    3.7      24    1.1      193.8  -16.2   15.0  146.3   -6.4   210.5
 18 FEB  7  38:16:00:00     369    3.7      23    1.0      193.8  -16.1   15.0  146.3   -6.4   210.0
 18 FEB  7  38:17:00:00     366    3.3      23    1.1      193.8  -15.9   15.0  146.3   -6.4   209.4
 18 FEB  7  38:18:00:00     366    3.1      23    1.3      193.8  -15.7   15.0  146.3   -6.4   208.8
 18 FEB  7  38:19:00:00     371    2.7      24    1.4      193.8  -15.6   15.0  146.3   -6.4   208.3
 18 FEB  7  38:20:00:00     376    2.4      27    1.9      193.8  -15.4   15.0  146.3   -6.4   207.8
 18 FEB  7  38:21:00:00     360    2.8      24    2.0      193.8  -15.2   15.0  146.3   -6.4   207.2
 18 FEB  7  38:22:00:00     354    2.7      23    2.0      193.8  -15.1   15.0  146.3   -6.4   206.7
 18 FEB  7  38:23:00:00     352    2.6      22    1.8      193.8  -14.9   15.0  146.3   -6.4   206.1
 18 FEB  8  39:00:00:00     351    2.6      22    1.7      193.8  -14.8   15.0  146.3   -6.4   205.6
 18 FEB  8  39:01:00:00     352    3.4      22    1.6      193.9  -14.6   15.0  146.3   -6.4   205.0
 18 FEB  8  39:02:00:00     359    5.5      22    1.4      193.9  -14.4   15.0  146.3   -6.4   204.5
 18 FEB  8  39:03:00:00     358    4.6      23    1.3      193.9  -14.3   15.0  146.3   -6.4   203.9
 18 FEB  8  39:04:00:00     353    4.8      24    1.7      193.9  -14.1   15.0  146.3   -6.4   203.4
 18 FEB  8  39:05:00:00     341    4.4      25    1.4      193.9  -13.9   15.0  146.3   -6.4   202.8
 18 FEB  8  39:06:00:00     341    4.4      24    1.8      193.9  -13.8   15.0  146.3   -6.5   202.3
 18 FEB  8  39:07:00:00     345    5.4      24    2.5      193.9  -13.6   15.0  146.3   -6.5   201.7
 18 FEB  8  39:08:00:00     353    6.9      24    3.2      193.9  -13.4   15.0  146.3   -6.5   201.2
 18 FEB  8  39:09:00:00     355    7.1      24    2.5      193.9  -13.3   15.0  146.3   -6.5   200.6
 18 FEB  8  39:10:00:00     357    7.3      23    3.3      193.9  -13.1   15.0  146.3   -6.5   200.1
 18 FEB  8  39:11:00:00     357    5.7      25    1.5      193.9  -12.9   15.0  146.3   -6.5   199.5
 18 FEB  8  39:12:00:00     357    4.8      26    0.7      193.9  -12.8   15.0  146.3   -6.5   199.0
 18 FEB  8  39:13:00:00     359    4.4      26    1.2      193.9  -12.6   15.1  146.3   -6.5   198.4
 18 FEB  8  39:14:00:00     355    3.0      28    0.3      193.9  -12.4   15.1  146.3   -6.5   197.9
 18 FEB  8  39:15:00:00     353    2.7      31    1.2      193.9  -12.3   15.1  146.3   -6.5   197.3
 18 FEB  8  39:16:00:00      -1   -1.0      -1   99.0      193.9  -12.1   15.1  146.3   -6.5   196.8
 18 FEB  8  39:17:00:00      -1   -1.0      -1   99.0      193.9  -11.9   15.1  146.3   -6.5   196.2
 18 FEB  8  39:18:00:00      -1   -1.0      -1   99.0      194.0  -11.8   15.1  146.3   -6.5   195.7
 18 FEB  8  39:19:00:00      -1   -1.0      -1   99.0      194.0  -11.6   15.1  146.3   -6.5   195.1
 18 FEB  8  39:20:00:00     350    3.2      29    2.6      194.0  -11.5   15.1  146.3   -6.5   194.6
 18 FEB  8  39:21:00:00     342    3.4      29    2.2      194.0  -11.3   15.1  146.4   -6.5   194.1
 18 FEB  8  39:22:00:00     340    3.1      28    1.3      194.0  -11.1   15.1  146.4   -6.5   193.5
 18 FEB  8  39:23:00:00      -1   -1.0      -1   99.0      194.0  -11.0   15.1  146.4   -6.5   193.0
 18 FEB  9  40:00:00:00      -1   -1.0      -1   99.0      194.0  -10.8   15.1  146.4   -6.5   192.4
 18 FEB  9  40:01:00:00      -1   -1.0      -1   99.0      194.0  -10.6   15.1  146.4   -6.5   191.8
 18 FEB  9  40:02:00:00      -1   -1.0      -1   99.0      194.0  -10.5   15.1  146.4   -6.5   191.3
 18 FEB  9  40:03:00:00      -1   -1.0      -1   99.0      194.0  -10.3   15.1  146.4   -6.5   190.7
 18 FEB  9  40:04:00:00     311    5.0      21   -0.2      194.0  -10.1   15.1  146.4   -6.5   190.2
 18 FEB  9  40:05:00:00     316    4.6      22    0.2      194.0  -10.0   15.1  146.4   -6.5   189.6
 18 FEB  9  40:06:00:00     308    4.4      20   -0.3      194.0   -9.8   15.1  146.4   -6.5   189.1
 18 FEB  9  40:07:00:00     306    4.3      20    0.0      194.0   -9.6   15.1  146.4   -6.5   188.6
 18 FEB  9  40:08:00:00      -1   -1.0      -1   99.0      194.0   -9.5   15.1  146.4   -6.5   188.0
 18 FEB  9  40:09:00:00      -1   -1.0      -1   99.0      194.0   -9.3   15.1  146.4   -6.5   187.5
 18 FEB  9  40:10:00:00      -1   -1.0      -1   99.0      194.0   -9.1   15.1  146.4   -6.5   186.9
 18 FEB  9  40:11:00:00      -1   -1.0      -1   99.0      194.1   -9.0   15.1  146.4   -6.5   186.4
 18 FEB  9  40:12:00:00      -1   -1.0      -1   99.0      194.1   -8.8   15.1  146.4   -6.5   185.8
 18 FEB  9  40:13:00:00      -1   -1.0      -1   99.0      194.1   -8.6   15.1  146.4   -6.5   185.2
 18 FEB  9  40:14:00:00      -1   -1.0      -1   99.0      194.1   -8.5   15.1  146.4   -6.5   184.7
 18 FEB  9  40:15:00:00     301    3.6      19   -1.1      194.1   -8.3   15.1  146.4   -6.5   184.1
 18 FEB  9  40:16:00:00     304    3.6      19   -0.5      194.1   -8.1   15.1  146.4   -6.5   183.6
 18 FEB  9  40:17:00:00     299    3.5      19   -0.1      194.1   -8.0   15.1  146.4   -6.5   183.1
 18 FEB  9  40:18:00:00      -1   -1.0      -1   99.0      194.1   -7.8   15.1  146.4   -6.5   182.5
 18 FEB  9  40:19:00:00      -1   -1.0      -1   99.0      194.1   -7.6   15.1  146.4   -6.5   182.0
 18 FEB  9  40:20:00:00     310    4.3      20   -1.2      194.1   -7.4   15.1  146.4   -6.5   181.4
 18 FEB  9  40:21:00:00     303    3.8      19   -0.7      194.1   -7.3   15.1  146.4   -6.5   180.9
 18 FEB  9  40:22:00:00     305    4.0      19   -0.4      194.1   -7.1   15.1  146.4   -6.5   180.3
 18 FEB  9  40:23:00:00     304    4.4      19   -1.1      194.1   -6.9   15.1  146.4   -6.5   179.8
 18 FEB 10  41:00:00:00     313    6.1      21   -2.6      194.1   -6.8   15.1  146.4   -6.5   179.2
 18 FEB 10  41:01:00:00      -1   -1.0      -1   99.0      194.1   -6.6   15.1  146.4   -6.5   178.6
 18 FEB 10  41:02:00:00      -1   -1.0      -1   99.0      194.2   -6.4   15.1  146.4   -6.5   178.1
 18 FEB 10  41:03:00:00      -1   -1.0      -1   99.0      194.2   -6.3   15.2  146.4   -6.5   177.6
 18 FEB 10  41:04:00:00      -1   -1.0      -1   99.0      194.2   -6.1   15.2  146.4   -6.5   177.0
 18 FEB 10  41:05:00:00     309    4.6      20   -2.0      194.2   -5.9   15.2  146.4   -6.5   176.5
 18 FEB 10  41:06:00:00      -1   -1.0      -1   99.0      194.2   -5.8   15.2  146.4   -6.5   175.9
 18 FEB 10  41:07:00:00      -1   -1.0      -1   99.0      194.2   -5.6   15.2  146.4   -6.5   175.4
 18 FEB 10  41:08:00:00      -1   -1.0      -1   99.0      194.2   -5.4   15.2  146.4   -6.6   174.8
 18 FEB 10  41:09:00:00      -1   -1.0      -1   99.0      194.2   -5.3   15.2  146.4   -6.6   174.3
 18 FEB 10  41:10:00:00      -1   -1.0      -1   99.0      194.2   -5.1   15.2  146.4   -6.6   173.7
 18 FEB 10  41:11:00:00      -1   -1.0      -1   99.0      194.2   -4.9   15.2  146.4   -6.6   173.2
 18 FEB 10  41:12:00:00     323    6.2      22   -1.7      194.2   -4.8   15.2  146.4   -6.6   172.6
 18 FEB 10  41:13:00:00     304    7.5      19   -1.4      194.2   -4.6   15.2  146.4   -6.6   172.1
 18 FEB 10  41:14:00:00     320    4.1      22   -0.6      194.2   -4.4   15.2  146.4   -6.6   171.5
 18 FEB 10  41:15:00:00     314    4.2      21    0.3      194.2   -4.3   15.2  146.4   -6.6   171.0
 18 FEB 10  41:16:00:00     305    3.9      20    0.4      194.2   -4.1   15.2  146.4   -6.6   170.5
 18 FEB 10  41:17:00:00      -1   -1.0      -1   99.0      194.2   -3.9   15.2  146.4   -6.6   169.9
 18 FEB 10  41:18:00:00     351    2.9      31    4.0      194.3   -3.7   15.2  146.4   -6.6   169.3
 18 FEB 10  41:19:00:00     350    3.5      30    5.0      194.3   -3.6   15.2  146.4   -6.6   168.8
 18 FEB 10  41:20:00:00     344    2.2      31    2.4      194.3   -3.4   15.2  146.4   -6.6   168.2
 18 FEB 10  41:21:00:00     356    1.6      36    2.5      194.3   -3.2   15.2  146.4   -6.6   167.7
 18 FEB 10  41:22:00:00     324    4.2      28    2.9      194.3   -3.1   15.2  146.4   -6.6   167.1
 18 FEB 10  41:23:00:00      -1   -1.0      -1   99.0      194.3   -2.9   15.2  146.4   -6.6   166.6
 18 FEB 11  42:00:00:00      -1   -1.0      -1   99.0      194.3   -2.7   15.2  146.4   -6.6   166.0
 18 FEB 11  42:01:00:00      -1   -1.0      -1   99.0      194.3   -2.6   15.2  146.4   -6.6   165.5
 18 FEB 11  42:02:00:00      -1   -1.0      -1   99.0      194.3   -2.4   15.2  146.4   -6.6   165.0
 18 FEB 11  42:03:00:00      -1   -1.0      -1   99.0      194.3   -2.2   15.2  146.4   -6.6   164.4
 18 FEB 11  42:04:00:00     317    3.4      23    1.0      194.3   -2.1   15.2  146.4   -6.6   163.9
 18 FEB 11  42:05:00:00     316    3.3      22    1.0      194.3   -1.9   15.2  146.4   -6.6   163.3
 18 FEB 11  42:06:00:00     308    2.5      21    0.4      194.3   -1.7   15.2  146.4   -6.6   162.7
 18 FEB 11  42:07:00:00     303    2.1      20    0.0      194.3   -1.5   15.2  146.4   -6.6   162.2
 18 FEB 11  42:08:00:00      -1   -1.0      -1   99.0      194.3   -1.4   15.2  146.4   -6.6   161.6
 18 FEB 11  42:09:00:00     312    2.0      21    1.5      194.4   -1.2   15.2  146.4   -6.6   161.1
 18 FEB 11  42:10:00:00     313    2.1      21    1.9      194.4   -1.0   15.2  146.4   -6.6   160.5
 18 FEB 11  42:11:00:00     309    2.1      20    2.0      194.4   -0.9   15.2  146.4   -6.6   160.0
 18 FEB 11  42:12:00:00     306    2.4      20    1.2      194.4   -0.7   15.2  146.4   -6.6   159.5
 18 FEB 11  42:13:00:00     307    2.7      20    2.0      194.4   -0.5   15.2  146.4   -6.6   158.9
 18 FEB 11  42:14:00:00      -1   -1.0      -1   99.0      194.4   -0.4   15.2  146.4   -6.6   158.4
 18 FEB 11  42:15:00:00      -1   -1.0      -1   99.0      194.4   -0.2   15.2  146.4   -6.6   157.8
 18 FEB 11  42:16:00:00      -1   -1.0      -1   99.0      194.4    0.0   15.2  146.4   -6.6   157.3
 18 FEB 11  42:17:00:00      -1   -1.0      -1   99.0      194.4    0.1   15.2  146.4   -6.6   156.7
 18 FEB 11  42:18:00:00      -1   -1.0      -1   99.0      194.4    0.3   15.2  146.4   -6.6   156.1
 18 FEB 11  42:19:00:00      -1   -1.0      -1   99.0      194.4    0.5   15.2  146.4   -6.6   155.6
 18 FEB 11  42:20:00:00      -1   -1.0      -1   99.0      194.4    0.7   15.2  146.4   -6.6   155.0
 18 FEB 11  42:21:00:00     310    2.5      21    1.0      194.4    0.8   15.2  146.4   -6.6   154.5
 18 FEB 11  42:22:00:00     304    2.1      19    0.8      194.4    1.0   15.2  146.4   -6.6   154.0
 18 FEB 11  42:23:00:00     305    2.1      19    0.2      194.4    1.2   15.2  146.4   -6.6   153.4
 18 FEB 12  43:00:00:00     300    2.2      19   -0.5      194.4    1.3   15.2  146.4   -6.6   152.9
 18 FEB 12  43:01:00:00      -1   -1.0      -1   99.0      194.5    1.5   15.2  146.4   -6.6   152.3
 18 FEB 12  43:02:00:00      -1   -1.0      -1   99.0      194.5    1.7   15.2  146.4   -6.6   151.8
 18 FEB 12  43:03:00:00     295    5.1      19   -0.4      194.5    1.8   15.2  146.4   -6.6   151.2
 18 FEB 12  43:04:00:00     294    5.6      19   -2.2      194.5    2.0   15.2  146.4   -6.6   150.7
 18 FEB 12  43:05:00:00      -1   -1.0      -1   99.0      194.5    2.2   15.2  146.4   -6.6   150.1
 18 FEB 12  43:06:00:00      -1   -1.0      -1   99.0      194.5    2.4   15.2  146.4   -6.6   149.5
 18 FEB 12  43:07:00:00      -1   -1.0      -1   99.0      194.5    2.5   15.2  146.4   -6.6   149.0
 18 FEB 12  43:08:00:00      -1   -1.0      -1   99.0      194.5    2.7   15.2  146.4   -6.6   148.5
 18 FEB 12  43:09:00:00      -1   -1.0      -1   99.0      194.5    2.9   15.2  146.4   -6.6   147.9
 18 FEB 12  43:10:00:00      -1   -1.0      -1   99.0      194.5    3.0   15.2  146.4   -6.6   147.4
 18 FEB 12  43:11:00:00     301    6.0      19    1.5      194.5    3.2   15.2  146.4   -6.6   146.8
 18 FEB 12  43:12:00:00     306    7.2      20    2.8      194.5    3.4   15.2  146.4   -6.6   146.3
 18 FEB 12  43:13:00:00     304    6.8      19    2.4      194.5    3.6   15.2  146.4   -6.6   145.7
 18 FEB 12  43:14:00:00     300    6.1      19    1.6      194.5    3.7   15.2  146.4   -6.6   145.2
 18 FEB 12  43:15:00:00      -1   -1.0      -1   99.0      194.5    3.9   15.2  146.5   -6.7   144.6
 18 FEB 12  43:16:00:00      -1   -1.0      -1   99.0      194.5    4.1   15.1  146.5   -6.7   144.1
 18 FEB 12  43:17:00:00      -1   -1.0      -1   99.0      194.6    4.2   15.1  146.5   -6.7   143.5
 18 FEB 12  43:18:00:00      -1   -1.0      -1   99.0      194.6    4.4   15.1  146.5   -6.7   143.0
 18 FEB 12  43:19:00:00      -1   -1.0      -1   99.0      194.6    4.6   15.1  146.5   -6.7   142.4
 18 FEB 12  43:20:00:00     302    6.0      19    1.5      194.6    4.7   15.1  146.5   -6.7   141.9
 18 FEB 12  43:21:00:00     298    6.2      18    1.6      194.6    4.9   15.1  146.5   -6.7   141.3
 18 FEB 12  43:22:00:00     299    6.1      19    2.1      194.6    5.1   15.1  146.5   -6.7   140.8
 18 FEB 12  43:23:00:00     298    5.1      19    1.3      194.6    5.3   15.1  146.5   -6.7   140.3
 18 FEB 13  44:00:00:00     298    4.6      18    0.9      194.6    5.4   15.1  146.5   -6.7   139.7
 18 FEB 13  44:01:00:00      -1   -1.0      -1   99.0      194.6    5.6   15.1  146.5   -6.7   139.1
 18 FEB 13  44:02:00:00      -1   -1.0      -1   99.0      194.6    5.8   15.1  146.5   -6.7   138.6
 18 FEB 13  44:03:00:00      -1   -1.0      -1   99.0      194.6    5.9   15.1  146.5   -6.7   138.0
 18 FEB 13  44:04:00:00      -1   -1.0      -1   99.0      194.6    6.1   15.1  146.5   -6.7   137.5
 18 FEB 13  44:05:00:00      -1   -1.0      -1   99.0      194.6    6.3   15.1  146.5   -6.7   136.9
 18 FEB 13  44:06:00:00      -1   -1.0      -1   99.0      194.6    6.4   15.1  146.5   -6.7   136.4
 18 FEB 13  44:07:00:00      -1   -1.0      -1   99.0      194.6    6.6   15.1  146.5   -6.7   135.8
 18 FEB 13  44:08:00:00      -1   -1.0      -1   99.0      194.6    6.8   15.1  146.5   -6.7   135.3
 18 FEB 13  44:09:00:00     296   13.8      19    6.7      194.6    7.0   15.1  146.5   -6.7   134.8
 18 FEB 13  44:10:00:00     299   12.6      19    6.8      194.7    7.1   15.1  146.5   -6.7   134.2
 18 FEB 13  44:11:00:00      -1   -1.0      -1   99.0      194.7    7.3   15.1  146.5   -6.7   133.7
 18 FEB 13  44:12:00:00      -1   -1.0      -1   99.0      194.7    7.5   15.1  146.5   -6.7   133.1
 18 FEB 13  44:13:00:00      -1   -1.0      -1   99.0      194.7    7.6   15.1  146.5   -6.7   132.5
 18 FEB 13  44:14:00:00      -1   -1.0      -1   99.0      194.7    7.8   15.1  146.5   -6.7   132.0
 18 FEB 13  44:15:00:00      -1   -1.0      -1   99.0      194.7    8.0   15.1  146.5   -6.7   131.4
 18 FEB 13  44:16:00:00      -1   -1.0      -1   99.0      194.7    8.2   15.1  146.5   -6.7   130.9
 18 FEB 13  44:17:00:00      -1   -1.0      -1   99.0      194.7    8.3   15.1  146.5   -6.7   130.3
 18 FEB 13  44:18:00:00      -1   -1.0      -1   99.0      194.7    8.5   15.1  146.5   -6.7   129.8
 18 FEB 13  44:19:00:00     296    3.2      19    1.6      194.7    8.7   15.1  146.5   -6.7   129.3
 18 FEB 13  44:20:00:00     291    3.1      19    0.8      194.7    8.8   15.1  146.5   -6.8   128.7
 18 FEB 13  44:21:00:00     287    3.1      17    0.8      194.7    9.0   15.1  146.5   -6.8   128.2
 18 FEB 13  44:22:00:00     293    2.9      18    1.3      194.7    9.2   15.1  146.5   -6.8   127.6
 18 FEB 13  44:23:00:00     295    3.1      19    2.7      194.7    9.3   15.1  146.5   -6.8   127.1
 18 FEB 14  45:00:00:00      -1   -1.0      -1   99.0      194.7    9.5   15.1  146.5   -6.8   126.5
 18 FEB 14  45:01:00:00      -1   -1.0      -1   99.0      194.7    9.7   15.1  146.5   -6.8   125.9
 18 FEB 14  45:02:00:00      -1   -1.0      -1   99.0      194.7    9.9   15.1  146.5   -6.8   125.4
 18 FEB 14  45:03:00:00      -1   -1.0      -1   99.0      194.7   10.0   15.1  146.5   -6.8   124.8
 18 FEB 14  45:04:00:00      -1   -1.0      -1   99.0      194.8   10.2   15.1  146.5   -6.8   124.3
 18 FEB 14  45:05:00:00      -1   -1.0      -1   99.0      194.8   10.4   15.1  146.5   -6.8   123.8
 18 FEB 14  45:06:00:00      -1   -1.0      -1   99.0      194.8   10.5   15.0  146.5   -6.8   123.2
 18 FEB 14  45:07:00:00      -1   -1.0      -1   99.0      194.8   10.7   15.0  146.5   -6.8   122.7
 18 FEB 14  45:08:00:00     301    1.9      19    1.1      194.8   10.9   15.0  146.5   -6.8   122.1
 18 FEB 14  45:09:00:00     299    2.1      19    1.4      194.8   11.0   15.0  146.5   -6.8   121.6
 18 FEB 14  45:10:00:00      -1   -1.0      -1   99.0      194.8   11.2   15.0  146.5   -6.8   121.0
 18 FEB 14  45:11:00:00      -1   -1.0      -1   99.0      194.8   11.4   15.0  146.5   -6.8   120.5
 18 FEB 14  45:12:00:00      -1   -1.0      -1   99.0      194.8   11.6   15.0  146.5   -6.8   119.9
 18 FEB 14  45:13:00:00      -1   -1.0      -1   99.0      194.8   11.7   15.0  146.5   -6.8   119.3
 18 FEB 14  45:14:00:00      -1   -1.0      -1   99.0      194.8   11.9   15.0  146.5   -6.8   118.8
 18 FEB 14  45:15:00:00      -1   -1.0      -1   99.0      194.8   12.1   15.0  146.5   -6.8   118.3
 18 FEB 14  45:16:00:00      -1   -1.0      -1   99.0      194.8   12.2   15.0  146.5   -6.8   117.7
 18 FEB 14  45:17:00:00     298    3.1      19   -1.5      194.8   12.4   15.0  146.5   -6.8   117.2
 18 FEB 14  45:18:00:00     291    3.3      18   -1.3      194.8   12.6   15.0  146.5   -6.8   116.6
 18 FEB 14  45:19:00:00     285    3.4      17   -0.2      194.8   12.8   15.0  146.5   -6.8   116.1
 18 FEB 14  45:20:00:00     275    3.3      15    1.2      194.8   12.9   15.0  146.5   -6.8   115.5
 18 FEB 14  45:21:00:00     274    3.2      14    0.8      194.8   13.1   15.0  146.5   -6.8   115.0
 18 FEB 14  45:22:00:00     274    3.3      13    0.9      194.8   13.3   15.0  146.5   -6.8   114.4
 18 FEB 14  45:23:00:00     273    3.5      12    1.0      194.9   13.4   15.0  146.5   -6.8   113.9
 18 FEB 15  46:00:00:00     273    3.9      12    0.9      194.9   13.6   15.0  146.5   -6.8   113.3
 18 FEB 15  46:01:00:00     273    3.6      11    0.7      194.9   13.8   15.0  146.5   -6.8   112.8
 18 FEB 15  46:02:00:00     272    3.8      11    1.0      194.9   13.9   15.0  146.5   -6.8   112.2
 18 FEB 15  46:03:00:00     273    3.0      12    1.3      194.9   14.1   15.0  146.5   -6.8   111.7
 18 FEB 15  46:04:00:00     272    2.6      11    1.9      194.9   14.3   15.0  146.5   -6.8   111.2
 18 FEB 15  46:05:00:00     272    2.9       9    1.9      194.9   14.4   15.0  146.5   -6.8   110.6
 18 FEB 15  46:06:00:00     274    2.2      13    1.8      194.9   14.6   14.9  146.5   -6.8   110.0
 18 FEB 15  46:07:00:00     279    1.4      16    1.8      194.9   14.8   14.9  146.5   -6.8   109.5
 18 FEB 15  46:08:00:00     340    8.3      16   -7.9      194.9   15.0   14.9  146.5   -6.8   108.9
 18 FEB 15  46:09:00:00     343    8.8      17   -9.1      194.9   15.1   14.9  146.5   -6.8   108.4
 18 FEB 15  46:10:00:00     342   10.3      18   -7.4      194.9   15.3   14.9  146.5   -6.8   107.8
 18 FEB 15  46:11:00:00     349   14.1      18   -5.9      194.9   15.5   14.9  146.5   -6.8   107.3
 18 FEB 15  46:12:00:00     354   10.9      21   -4.1      194.9   15.6   14.9  146.5   -6.8   106.7
 18 FEB 15  46:13:00:00     360    8.1      22   -2.0      194.9   15.8   14.9  146.5   -6.8   106.2
 18 FEB 15  46:14:00:00     363    5.5      22   -0.7      194.9   16.0   14.9  146.5   -6.8   105.7
 18 FEB 15  46:15:00:00     382    3.6      26   -1.1      194.9   16.1   14.9  146.5   -6.8   105.1
 18 FEB 15  46:16:00:00     369    4.9      25    0.1      194.9   16.3   14.9  146.5   -6.8   104.6
 18 FEB 15  46:17:00:00     352    6.2      21    1.4      194.9   16.5   14.9  146.5   -6.8   104.0
 18 FEB 15  46:18:00:00     346    5.5      13   -0.4      194.9   16.7   14.9  146.5   -6.8   103.4
 18 FEB 15  46:19:00:00     343    4.3      16   -0.5      194.9   16.8   14.9  146.5   -6.8   102.9
 18 FEB 15  46:20:00:00     346    6.7      18    2.6      194.9   17.0   14.9  146.5   -6.8   102.3
 18 FEB 15  46:21:00:00     347    6.4      20    2.4      195.0   17.2   14.9  146.5   -6.8   101.8
 18 FEB 15  46:22:00:00     349    6.0      20    0.6      195.0   17.3   14.9  146.5   -6.8   101.2
 18 FEB 15  46:23:00:00     350    6.6      19    0.8      195.0   17.5   14.9  146.5   -6.8   100.7
 18 FEB 16  47:00:00:00     350    6.7      18   -0.1      195.0   17.7   14.9  146.5   -6.8   100.2
 18 FEB 16  47:01:00:00     352    8.5      20    0.3      195.0   17.8   14.8  146.5   -6.8    99.6
 18 FEB 16  47:02:00:00     372    8.8      24    2.7      195.0   18.0   14.8  146.5   -6.8    99.1
 18 FEB 16  47:03:00:00     362    5.5      22    0.1      195.0   18.2   14.8  146.5   -6.8    98.5
 18 FEB 16  47:04:00:00     379    6.2      26   -0.8      195.0   18.3   14.8  146.6   -6.8    98.0
 18 FEB 16  47:05:00:00     369    3.7      22   -0.9      195.0   18.5   14.8  146.6   -6.8    97.4
 18 FEB 16  47:06:00:00     349    3.3      15    0.0      195.0   18.7   14.8  146.6   -6.8    96.8
 18 FEB 16  47:07:00:00     356    9.4      21    1.9      195.0   18.8   14.8  146.6   -6.8    96.3
 18 FEB 16  47:08:00:00     372    5.6      33    6.2      195.0   19.0   14.8  146.6   -6.8    95.7
 18 FEB 16  47:09:00:00     370    2.9      24    1.8      195.0   19.2   14.8  146.6   -6.8    95.2
 18 FEB 16  47:10:00:00     358    1.5      25    0.6      195.0   19.4   14.8  146.6   -6.8    94.7
 18 FEB 16  47:11:00:00     368    1.4      25   -0.1      195.0   19.5   14.8  146.6   -6.8    94.1
 18 FEB 16  47:12:00:00     358    2.8      24    3.7      195.0   19.7   14.8  146.6   -6.9    93.6
 18 FEB 16  47:13:00:00     361    5.1      22    5.4      195.0   19.9   14.8  146.6   -6.9    93.0
 18 FEB 16  47:14:00:00     363    6.2      22    4.3      195.0   20.0   14.8  146.6   -6.9    92.5
 18 FEB 16  47:15:00:00     362    5.9      22    2.5      195.0   20.2   14.8  146.6   -6.9    91.9
 18 FEB 16  47:16:00:00     386    6.4      28    4.7      195.0   20.4   14.8  146.6   -6.9    91.4
 18 FEB 16  47:17:00:00     365    4.4      23    1.5      195.0   20.5   14.8  146.6   -6.9    90.8
 18 FEB 16  47:18:00:00     381    3.3      27    2.7      195.0   20.7   14.7  146.6   -6.9    90.2
 18 FEB 16  47:19:00:00     375    4.0      25    1.6      195.0   20.9   14.7  146.6   -6.9    89.7
 18 FEB 16  47:20:00:00     384    4.8      27    2.3      195.0   21.0   14.7  146.6   -6.9    89.2
 18 FEB 16  47:21:00:00     380    5.9      26    2.8      195.1   21.2   14.7  146.6   -6.9    88.6
 18 FEB 16  47:22:00:00     390    6.5      27    4.1      195.1   21.4   14.7  146.6   -6.9    88.1
 18 FEB 16  47:23:00:00     401    3.9      31   -0.2      195.1   21.5   14.7  146.6   -6.9    87.5
 18 FEB 17  48:00:00:00     406    5.4      32    2.8      195.1   21.7   14.7  146.6   -6.9    87.0
 18 FEB 17  48:01:00:00     436    5.2      35    2.3      195.1   21.9   14.7  146.6   -6.9    86.4
 18 FEB 17  48:02:00:00     440    6.1      36    2.0      195.1   22.0   14.7  146.6   -6.9    85.9
 18 FEB 17  48:03:00:00     460    4.9      34    2.1      195.1   22.2   14.7  146.6   -6.9    85.3
 18 FEB 17  48:04:00:00     474    5.2      37    4.1      195.1   22.4   14.7  146.6   -6.9    84.8
 18 FEB 17  48:05:00:00     492    4.2      43    2.2      195.1   22.5   14.7  146.6   -6.9    84.2
 18 FEB 17  48:06:00:00     479    4.8      40    4.7      195.1   22.7   14.7  146.6   -6.9    83.7
 18 FEB 17  48:07:00:00     468    4.3      36    1.9      195.1   22.9   14.7  146.6   -6.9    83.1
 18 FEB 17  48:08:00:00     467    4.2      35    2.8      195.1   23.0   14.7  146.6   -6.9    82.6
 18 FEB 17  48:09:00:00     466    4.2      34    2.9      195.1   23.2   14.6  146.6   -6.9    82.0
 18 FEB 17  48:10:00:00     463    3.9      33    3.9      195.1   23.4   14.6  146.6   -6.9    81.5
 18 FEB 17  48:11:00:00     469    4.5      35    3.4      195.1   23.5   14.6  146.6   -6.9    81.0
 18 FEB 17  48:12:00:00     503    2.3      41    2.4      195.1   23.7   14.6  146.6   -6.9    80.4
 18 FEB 17  48:13:00:00     548    1.4      44    0.9      195.1   23.9   14.6  146.6   -6.9    79.8
 18 FEB 17  48:14:00:00     544    1.3      46    0.3      195.1   24.0   14.6  146.6   -6.9    79.3
 18 FEB 17  48:15:00:00     549    1.4      47   -0.2      195.1   24.2   14.6  146.6   -6.9    78.7
 18 FEB 17  48:16:00:00     537    1.6      47    0.7      195.1   24.4   14.6  146.6   -6.9    78.2
 18 FEB 17  48:17:00:00     514    1.7      44    0.0      195.1   24.5   14.6  146.6   -6.9    77.6
 18 FEB 17  48:18:00:00     479    3.1      38   -1.4      195.1   24.7   14.6  146.6   -6.9    77.1
 18 FEB 17  48:19:00:00     468    3.7      35   -0.7      195.1   24.9   14.6  146.6   -6.9    76.5
 18 FEB 17  48:20:00:00     465    4.1      34   -0.3      195.1   25.0   14.6  146.6   -6.9    76.0
 18 FEB 17  48:21:00:00     470    3.5      37    1.1      195.1   25.2   14.6  146.6   -6.9    75.5
 18 FEB 17  48:22:00:00     461    3.6      31    1.0      195.1   25.4   14.5  146.6   -6.9    74.9
 18 FEB 17  48:23:00:00     464    3.6      33    0.9      195.1   25.5   14.5  146.6   -6.9    74.4
 18 FEB 18  49:00:00:00     466    3.7      35    1.4      195.1   25.7   14.5  146.6   -6.9    73.8
 18 FEB 18  49:01:00:00     464    5.1      33    0.3      195.1   25.9   14.5  146.6   -6.9    73.2
 18 FEB 18  49:02:00:00     480    4.3      38    1.4      195.1   26.0   14.5  146.6   -6.9    72.7
 18 FEB 18  49:03:00:00     475    4.8      36    1.7      195.2   26.2   14.5  146.6   -6.9    72.1
 18 FEB 18  49:04:00:00     473    6.9      36    3.6      195.2   26.4   14.5  146.6   -6.9    71.6
 18 FEB 18  49:05:00:00     506    3.3      41    3.0      195.2   26.5   14.5  146.6   -6.9    71.0
 18 FEB 18  49:06:00:00     548    1.4      46    2.5      195.2   26.7   14.5  146.6   -6.9    70.5
 18 FEB 18  49:07:00:00     551    2.7      46   -1.0      195.2   26.8   14.5  146.6   -6.9    70.0
 18 FEB 18  49:08:00:00     558    2.6      43   -0.5      195.2   27.0   14.5  146.6   -6.9    69.4
 18 FEB 18  49:09:00:00     568    2.0      41    0.6      195.2   27.2   14.5  146.6   -6.9    68.9
 18 FEB 18  49:10:00:00     577    1.8      43    0.3      195.2   27.3   14.5  146.6   -6.9    68.3
 18 FEB 18  49:11:00:00     562    2.4      35   -0.9      195.2   27.5   14.4  146.6   -6.9    67.8
 18 FEB 18  49:12:00:00     562    2.1      35   -0.3      195.2   27.7   14.4  146.6   -6.9    67.2
 18 FEB 18  49:13:00:00     567    1.9      38    0.2      195.2   27.8   14.4  146.6   -6.9    66.6
 18 FEB 18  49:14:00:00     555    1.7      42    1.0      195.2   28.0   14.4  146.6   -6.9    66.1
 18 FEB 18  49:15:00:00     541    1.9      46    0.1      195.2   28.2   14.4  146.6   -6.9    65.5
 18 FEB 18  49:16:00:00     542    2.2      42    0.4      195.2   28.3   14.4  146.6   -6.9    65.0
 18 FEB 18  49:17:00:00     545    2.5      44    1.0      195.2   28.5   14.4  146.6   -6.9    64.5
 18 FEB 18  49:18:00:00     564    2.3      44    0.7      195.2   28.7   14.4  146.6   -6.9    63.9
 18 FEB 18  49:19:00:00     576    2.7      41    2.0      195.2   28.8   14.4  146.6   -6.9    63.4
 18 FEB 18  49:20:00:00     581    2.1      43    0.4      195.2   29.0   14.4  146.6   -6.9    62.8
 18 FEB 18  49:21:00:00     570    2.1      39    0.2      195.2   29.1   14.4  146.6   -6.9    62.3
 18 FEB 18  49:22:00:00     589    1.9      46    0.1      195.2   29.3   14.3  146.6   -6.9    61.7
 18 FEB 18  49:23:00:00     587    2.4      46   -0.1      195.2   29.5   14.3  146.6   -6.9    61.2
 18 FEB 19  50:00:00:00     593    2.1      46    0.8      195.2   29.6   14.3  146.6   -6.9    60.6
 18 FEB 19  50:01:00:00     584    2.7      45   -0.4      195.2   29.8   14.3  146.6   -6.9    60.0
 18 FEB 19  50:02:00:00     574    3.2      45    0.6      195.2   30.0   14.3  146.6   -6.9    59.5
 18 FEB 19  50:03:00:00     585    2.8      46    0.1      195.2   30.1   14.3  146.6   -6.9    59.0
 18 FEB 19  50:04:00:00     590    2.1      48   -0.1      195.2   30.3   14.3  146.6   -6.9    58.4
 18 FEB 19  50:05:00:00     572    2.0      42   -1.0      195.2   30.4   14.3  146.6   -6.9    57.9
 18 FEB 19  50:06:00:00     579    2.0      44   -0.1      195.2   30.6   14.3  146.6   -6.9    57.3
 18 FEB 19  50:07:00:00     570    1.6      39   -0.5      195.2   30.8   14.3  146.6   -6.9    56.8
 18 FEB 19  50:08:00:00     570    1.7      39   -1.2      195.2   30.9   14.3  146.6   -6.9    56.2
 18 FEB 19  50:09:00:00     565    2.1      36   -1.6      195.2   31.1   14.2  146.6   -6.9    55.7
 18 FEB 19  50:10:00:00     562    2.6      35   -2.3      195.2   31.2   14.2  146.6   -6.9    55.1
 18 FEB 19  50:11:00:00     564    2.4      42   -3.4      195.2   31.4   14.2  146.6   -6.9    54.6
 18 FEB 19  50:12:00:00     554    2.2      42   -3.1      195.2   31.6   14.2  146.7   -6.9    54.0
 18 FEB 19  50:13:00:00     555    2.0      40   -2.7      195.2   31.7   14.2  146.7   -6.9    53.5
 18 FEB 19  50:14:00:00     547    1.7      40   -1.8      195.3   31.9   14.2  146.7   -7.0    52.9
 18 FEB 19  50:15:00:00     546    1.5      39   -1.9      195.3   32.1   14.2  146.7   -7.0    52.4
 18 FEB 19  50:16:00:00     560    1.4      43    0.0      195.3   32.2   14.2  146.7   -7.0    51.9
 18 FEB 19  50:17:00:00     559    1.6      40    0.9      195.3   32.4   14.2  146.7   -7.0    51.3
 18 FEB 19  50:18:00:00     553    1.6      41    0.5      195.3   32.5   14.2  146.7   -7.0    50.7
 18 FEB 19  50:19:00:00     547    1.5      42   -0.2      195.3   32.7   14.2  146.7   -7.0    50.2
 18 FEB 19  50:20:00:00     549    1.8      41   -0.2      195.3   32.9   14.1  146.7   -7.0    49.6
 18 FEB 19  50:21:00:00     543    1.9      40   -0.1      195.3   33.0   14.1  146.7   -7.0    49.1
 18 FEB 19  50:22:00:00     529    1.5      43    1.3      195.3   33.2   14.1  146.7   -7.0    48.5
 18 FEB 19  50:23:00:00     523    1.3      44    1.4      195.3   33.3   14.1  146.7   -7.0    48.0
 18 FEB 20  51:00:00:00     502    1.6      40    1.1      195.3   33.5   14.1  146.7   -7.0    47.4
 18 FEB 20  51:01:00:00     503    1.4      41   -0.2      195.3   33.7   14.1  146.7   -7.0    46.9
 18 FEB 20  51:02:00:00     493    0.9      38   -0.2      195.3   33.8   14.1  146.7   -7.0    46.4
 18 FEB 20  51:03:00:00     477    0.9      35    0.7      195.3   34.0   14.1  146.7   -7.0    45.8
 18 FEB 20  51:04:00:00     458    1.1      29   -0.3      195.3   34.1   14.1  146.7   -7.0    45.3
 18 FEB 20  51:05:00:00     453    1.1      28   -1.1      195.3   34.3   14.1  146.7   -7.0    44.7
 18 FEB 20  51:06:00:00     432    0.9      31   -1.2      195.3   34.5   14.0  146.7   -7.0    44.1
 18 FEB 20  51:07:00:00     413    0.6      31   -1.2      195.3   34.6   14.0  146.7   -7.0    43.6
 18 FEB 20  51:08:00:00     406    0.7      30   -0.3      195.3   34.8   14.0  146.7   -7.0    43.0
 18 FEB 20  51:09:00:00     384    1.1      26    0.1      195.3   34.9   14.0  146.7   -7.0    42.5
 18 FEB 20  51:10:00:00     406    0.9      29   -1.5      195.3   35.1   14.0  146.7   -7.0    41.9
 18 FEB 20  51:11:00:00     402    0.8      29   -0.7      195.3   35.2   14.0  146.7   -7.0    41.4
 18 FEB 20  51:12:00:00     413    1.1      28   -1.1      195.3   35.4   14.0  146.7   -7.0    40.9
 18 FEB 20  51:13:00:00     416    1.0      29   -1.2      195.3   35.6   14.0  146.7   -7.0    40.3
 18 FEB 20  51:14:00:00     427    0.9      27   -0.5      195.3   35.7   14.0  146.7   -7.0    39.8
 18 FEB 20  51:15:00:00     409    1.0      30   -1.3      195.3   35.9   14.0  146.7   -7.0    39.2
 18 FEB 20  51:16:00:00     402    1.1      29   -1.7      195.3   36.0   13.9  146.7   -7.0    38.7
 18 FEB 20  51:17:00:00     398    1.2      28   -1.7      195.3   36.2   13.9  146.7   -7.0    38.1
 18 FEB 20  51:18:00:00     387    1.4      26   -0.9      195.3   36.4   13.9  146.7   -7.0    37.5
 18 FEB 20  51:19:00:00     371    1.6      23   -0.3      195.3   36.5   13.9  146.7   -7.0    37.0
 18 FEB 20  51:20:00:00     368    1.6      22   -0.1      195.3   36.7   13.9  146.7   -7.0    36.4
 18 FEB 20  51:21:00:00     365    1.3      22   -0.1      195.3   36.8   13.9  146.7   -7.0    35.9
 18 FEB 20  51:22:00:00     353    1.4      19   -1.5      195.3   37.0   13.9  146.7   -7.0    35.4
 18 FEB 20  51:23:00:00     347    2.0      13   -0.6      195.3   37.1   13.9  146.7   -7.0    34.8
 18 FEB 21  52:00:00:00     346    1.8      10   -0.6      195.3   37.3   13.9  146.7   -7.0    34.3
 18 FEB 21  52:01:00:00     345    2.1       9    0.0      195.3   37.4   13.8  146.7   -7.0    33.7
 18 FEB 21  52:02:00:00     347    1.1      15   -2.3      195.3   37.6   13.8  146.7   -7.0    33.2
 18 FEB 21  52:03:00:00     343    1.2      18   -4.4      195.3   37.8   13.8  146.7   -7.0    32.6
 18 FEB 21  52:04:00:00     334    1.1      20   -4.5      195.4   37.9   13.8  146.7   -7.0    32.1
 18 FEB 21  52:05:00:00     341    3.6      20   -4.8      195.4   38.1   13.8  146.7   -7.0    31.5
 18 FEB 21  52:06:00:00     348    8.2      20   -7.5      195.4   38.2   13.8  146.7   -7.0    30.9
 18 FEB 21  52:07:00:00     358   12.6      21   -7.3      195.4   38.4   13.8  146.7   -7.0    30.4
 18 FEB 21  52:08:00:00     378    5.5      26   -5.6      195.4   38.5   13.8  146.7   -7.0    29.9
 18 FEB 21  52:09:00:00     390    4.5      27   -5.1      195.4   38.7   13.8  146.7   -7.0    29.3
 18 FEB 21  52:10:00:00     396    4.8      26   -7.2      195.4   38.8   13.8  146.7   -7.0    28.8
 18 FEB 21  52:11:00:00     412    2.4      28   -8.0      195.4   39.0   13.7  146.7   -7.0    28.2
 18 FEB 21  52:12:00:00     380    2.9      25   -1.9      195.4   39.2   13.7  146.7   -7.0    27.7
 18 FEB 21  52:13:00:00     375    2.8      24   -0.9      195.4   39.3   13.7  146.7   -7.0    27.1
 18 FEB 21  52:14:00:00     366    3.6      22   -1.2      195.4   39.5   13.7  146.7   -7.0    26.6
 18 FEB 21  52:15:00:00     356    3.9      21   -0.5      195.4   39.6   13.7  146.7   -7.0    26.0
 18 FEB 21  52:16:00:00     354    4.0      20   -0.2      195.4   39.8   13.7  146.7   -7.0    25.5
 18 FEB 21  52:17:00:00     353    3.9      20   -0.5      195.4   39.9   13.7  146.7   -7.0    24.9
 18 FEB 21  52:18:00:00     351    4.0      20   -0.8      195.4   40.1   13.7  146.7   -7.0    24.4
 18 FEB 21  52:19:00:00     351    4.5      20   -1.5      195.4   40.2   13.7  146.7   -7.0    23.8
 18 FEB 21  52:20:00:00     354    4.7      20   -1.4      195.4   40.4   13.6  146.7   -7.0    23.3
 18 FEB 21  52:21:00:00     364    3.7      22   -0.5      195.4   40.5   13.6  146.7   -7.0    22.7
 18 FEB 21  52:22:00:00     356    4.2      20   -0.2      195.4   40.7   13.6  146.7   -7.0    22.2
 18 FEB 21  52:23:00:00     364    3.8      22   -0.1      195.4   40.8   13.6  146.7   -7.0    21.7
 18 FEB 22  53:00:00:00     354    4.6      20   -0.4      195.4   41.0   13.6  146.7   -7.0    21.1
 18 FEB 22  53:01:00:00     361    3.9      21    0.4      195.4   41.1   13.6  146.7   -7.0    20.5
 18 FEB 22  53:02:00:00     372    3.6      23    0.4      195.4   41.3   13.6  146.7   -7.0    20.0
 18 FEB 22  53:03:00:00     375    3.6      24    0.9      195.4   41.5   13.6  146.7   -7.0    19.4
 18 FEB 22  53:04:00:00     380    3.2      25    0.7      195.4   41.6   13.5  146.7   -7.0    18.9
 18 FEB 22  53:05:00:00     380    3.5      25    0.5      195.4   41.8   13.5  146.7   -7.0    18.3
 18 FEB 22  53:06:00:00     385    2.9      26    0.0      195.4   41.9   13.5  146.7   -7.0    17.8
 18 FEB 22  53:07:00:00     380    3.9      25    1.1      195.4   42.1   13.5  146.7   -7.0    17.2
 18 FEB 22  53:08:00:00     385    3.8      26    0.4      195.4   42.2   13.5  146.7   -7.0    16.7
 18 FEB 22  53:09:00:00     406    3.7      28   -2.5      195.4   42.4   13.5  146.7   -7.0    16.2
 18 FEB 22  53:10:00:00     383    5.2      25   -1.0      195.4   42.5   13.5  146.7   -7.0    15.6
 18 FEB 22  53:11:00:00     376    5.8      24   -0.1      195.4   42.7   13.5  146.7   -7.0    15.1
 18 FEB 22  53:12:00:00     387    5.6      25   -2.1      195.4   42.8   13.5  146.7   -7.0    14.5
 18 FEB 22  53:13:00:00     402    4.0      28   -1.2      195.5   43.0   13.4  146.7   -7.0    13.9
 18 FEB 22  53:14:00:00     425    4.1      32   -1.4      195.5   43.1   13.4  146.7   -7.0    13.4
 18 FEB 22  53:15:00:00     424    4.3      31   -1.0      195.5   43.3   13.4  146.7   -7.0    12.8
 18 FEB 22  53:16:00:00     418    4.9      29   -1.4      195.5   43.4   13.4  146.7   -7.0    12.3
 18 FEB 22  53:17:00:00     405    5.5      30   -2.1      195.5   43.6   13.4  146.8   -7.0    11.7
 18 FEB 22  53:18:00:00     410    6.4      30   -1.7      195.5   43.7   13.4  146.8   -7.0    11.2
 18 FEB 22  53:19:00:00     391    6.5      27   -2.2      195.5   43.9   13.4  146.8   -7.0    10.7
 18 FEB 22  53:20:00:00     394    8.2      28   -3.9      195.5   44.0   13.4  146.8   -7.0    10.1
 18 FEB 22  53:21:00:00     408    8.7      29   -4.6      195.5   44.2   13.3  146.8   -7.0     9.6
 18 FEB 22  53:22:00:00     407    6.3      29   -4.5      195.5   44.3   13.3  146.8   -7.0     9.0
 18 FEB 22  53:23:00:00     439    5.6      28   -2.0      195.5   44.5   13.3  146.8   -7.0     8.5
 18 FEB 23  54:00:00:00     451    4.9      31   -2.3      195.5   44.6   13.3  146.8   -7.0     7.9
 18 FEB 23  54:01:00:00     458    5.5      30   -2.7      195.5   44.7   13.3  146.8   -7.0     7.3
 18 FEB 23  54:02:00:00     453    4.4      28   -1.7      195.5   44.9   13.3  146.8   -7.0     6.8
 18 FEB 23  54:03:00:00     468    4.3      33   -1.6      195.5   45.0   13.3  146.8   -7.0     6.2
 18 FEB 23  54:04:00:00     479    3.9      35   -1.1      195.5   45.2   13.3  146.8   -7.0     5.7
 18 FEB 23  54:05:00:00     482    4.1      37   -0.7      195.5   45.3   13.2  146.8   -7.0     5.2
 18 FEB 23  54:06:00:00     484    3.1      37   -0.1      195.5   45.5   13.2  146.8   -7.0     4.6
 18 FEB 23  54:07:00:00     545    4.3      42    1.5      195.5   45.6   13.2  146.8   -7.0     4.1
 18 FEB 23  54:08:00:00     544    4.1      41    1.0      195.5   45.8   13.2  146.8   -7.0     3.5
 18 FEB 23  54:09:00:00     545    3.6      44    1.6      195.5   45.9   13.2  146.8   -7.0     3.0
 18 FEB 23  54:10:00:00     551    3.0      45   -0.1      195.5   46.1   13.2  146.8   -7.0     2.4
 18 FEB 23  54:11:00:00     551    2.2      45   -0.5      195.5   46.2   13.2  146.8   -7.1     1.8
 18 FEB 23  54:12:00:00     552    2.2      41   -1.4      195.5   46.4   13.2  146.8   -7.1     1.3
 18 FEB 23  54:13:00:00     549    1.8      41   -1.9      195.5   46.5   13.1  146.8   -7.1     0.7
 18 FEB 23  54:14:00:00     551    1.5      45   -0.6      195.6   46.7   13.1  146.8   -7.1     0.2